#timestamp,LO_Frequency,Hit,StdDev 
1570766415.3,286047001.2,P
1570766435.1,286047000.8,N
1570766436.0,286047000.8,N
1570766455.8,286047001.0,N
1570766475.7,286047000.2,N
1570766495.5,286046999.8,N
1570766515.3,286046998.1,N
1570766535.2,286047001.2,N
1570766555.0,286047000.9,N
1570766555.9,286047000.9,N
1570766575.8,286046998.7,N
1570766595.6,286047000.7,N
1570766615.4,286046998.1,N
1570766635.3,286047002.7,N
1570766655.1,286047000.6,N
1570766675.9,286047000.0,N
1570766695.7,286047000.8,N
1570766715.5,286047000.2,N
1570766735.4,286047000.6,N
1570766755.2,286047001.1,N
1570766775.0,286047001.6,N
1570766776.0,286047001.6,N
1570766795.8,286046999.7,N
1570766815.6,286047002.8,N
1570766835.5,286047002.4,N
1570766855.3,286047002.1,N
1570766875.1,286047002.8,N
1570766895.9,286046998.1,N
1570766915.7,286047002.4,N
1570766935.6,286047000.2,N
1570766955.4,286046999.7,N
1570766975.2,286047000.5,N
1570766995.1,286047000.5,N
1570766996.0,286047000.5,N
1570767015.8,286046998.2,N
1570767035.6,286046998.8,N
1570767055.5,286046998.3,N
1570767075.3,286046999.5,N
1570767095.2,286046996.5,N
1570767115.9,286046999.3,N
1570767135.7,286046998.6,N
1570767155.6,286046998.9,N
1570767175.4,286047001.2,N
1570767195.2,286047000.8,N
1570767215.1,286046998.2,N
1570767216.0,286046998.2,N
1570767235.8,286046998.6,N
1570767255.6,286046998.3,N
1570767275.5,286046999.5,N
1570767295.3,286046996.6,N
1570767315.2,286046997.7,N
1570767335.9,286046996.8,N
1570767355.7,286046999.5,N
1570767375.6,286046997.5,N
1570767395.4,286046995.5,N
1570767415.2,286046997.9,N
1570767435.1,286046993.3,Y
1570767436.0,286046993.3,P
1570767455.8,286046993.3,N
1570767475.7,286046995.0,N
1570767495.5,286046995.7,N
1570767515.3,286046993.6,Y
1570767535.2,286046997.1,P
1570767555.0,286046997.4,N
1570767555.9,286046997.4,N
1570767575.8,286046997.3,Y
1570767595.6,286047000.7,P
1570767615.4,286046999.2,N
1570767635.3,286046999.6,N
1570767655.1,286046998.3,N
1570767675.8,286046996.9,N
1570767695.7,286046998.0,N
1570767715.5,286046993.6,Y
1570767735.4,286046995.4,P
1570767755.2,286046997.5,N
1570767775.0,286046997.4,N
1570767775.9,286046997.4,N
1570767795.8,286046995.6,Y
1570767815.6,286046996.9,P
1570767835.4,286046996.8,P
1570767855.3,286046995.5,P
1570767875.1,286046997.6,Y
1570767895.9,286047000.6,P
1570767915.7,286047001.0,N
1570767935.5,286047000.6,N
1570767955.4,286047001.2,N
1570767975.2,286046999.2,N
1570767995.0,286046994.9,Y
1570767995.9,286046994.9,P
1570768015.8,286046997.3,N
1570768035.6,286046997.5,N
1570768055.5,286046997.7,N
1570768075.3,286046995.7,N
1570768095.1,286046995.9,N
1570768115.9,286046993.4,Y
1570768135.7,286046995.4,P
1570768155.6,286046997.4,P
1570768175.4,286046995.4,P
1570768195.2,286046995.2,Y
1570768215.1,286046998.8,P
1570768216.0,286046998.8,N
1570768235.8,286047001.2,N
1570768255.6,286047000.1,N
1570768275.5,286046998.1,N
1570768295.3,286046998.2,N
1570768315.2,286046998.2,N
1570768335.9,286046997.6,N
1570768355.7,286046995.2,Y
1570768375.6,286046997.7,P
1570768395.4,286046997.1,P
1570768415.3,286046997.7,P
1570768435.1,286046996.7,Y
1570768436.0,286046996.7,P
1570768455.8,286047001.0,N
1570768475.7,286046999.1,N
1570768495.5,286046998.7,N
1570768515.3,286046998.1,N
1570768535.2,286046999.1,N
1570768555.0,286046997.0,N
1570768555.9,286046997.0,N
1570768575.8,286046997.1,N
1570768595.6,286046998.1,N
1570768615.4,286047000.6,N
1570768635.3,286046998.3,N
1570768655.1,286046999.1,N
1570768675.8,286046999.6,N
1570768695.7,286046997.8,N
1570768715.5,286046998.0,N
1570768735.4,286046997.5,N
1570768755.2,286046997.5,N
1570768775.0,286046999.3,N
1570768775.9,286046999.3,N
1570768795.8,286046999.3,N
1570768815.6,286046997.7,N
1570768835.4,286046995.1,Y
1570768855.3,286046995.1,P
1570768875.1,286046996.0,N
1570768895.9,286046996.2,N
1570768915.7,286046998.0,N
1570768935.5,286046997.3,N
1570768955.4,286046997.8,N
1570768975.2,286046997.5,N
1570768995.0,286046997.5,N
1570768995.9,286046997.5,N
1570769015.8,286046995.1,Y
1570769035.6,286046998.6,P
1570769055.5,286047001.2,N
1570769075.3,286047001.1,N
1570769095.1,286047000.0,N
1570769115.9,286046998.7,N
1570769135.7,286046998.4,N
1570769155.5,286046998.6,N
1570769175.4,286046998.4,N
1570769195.2,286046998.4,N
1570769215.1,286046998.2,N
1570769216.0,286046998.2,N
1570769235.8,286046998.8,N
1570769255.6,286046998.4,N
1570769275.5,286046996.9,N
1570769295.3,286046999.3,N
1570769315.1,286046998.9,N
1570769335.9,286046999.3,N
1570769355.7,286046999.2,N
1570769375.6,286046996.6,Y
1570769395.4,286047000.0,P
1570769415.2,286046998.6,N
1570769435.1,286047000.7,N
1570769436.0,286047000.7,N
1570769455.8,286046998.9,N
1570769475.6,286046998.2,N
1570769495.5,286047001.0,N
1570769515.3,286046998.1,N
1570769535.2,286046998.6,N
1570769555.9,286046998.1,N
1570769575.7,286046998.2,N
1570769595.6,286046998.4,N
1570769615.4,286046999.5,N
1570769635.2,286046997.2,N
1570769655.1,286046999.2,N
1570769656.0,286046999.2,N
1570769675.8,286046999.2,N
1570769695.7,286046999.3,N
1570769715.5,286046999.4,N
1570769735.3,286046999.3,N
1570769755.2,286046998.4,N
1570769775.0,286046999.9,N
1570769775.9,286046999.9,N
1570769795.7,286047000.0,N
1570769815.6,286047001.2,N
1570769835.4,286046998.1,N
1570769855.3,286046999.5,N
1570769875.1,286046998.8,N
1570769876.0,286046998.8,N
1570769895.8,286046998.1,N
1570769915.7,286046999.8,N
1570769935.5,286047002.2,N
1570769955.3,286047000.1,N
1570769975.2,286047000.5,N
1570769995.0,286046998.1,N
1570769995.9,286046998.1,N
